Regional Weather Roundup
Issued by NWS Albany, NY

Home | Current Version | Previous Version | Text Only | Print | Product List | Glossary On
Versions: 1 2 3 4 5 6 7 8 9 10 11 12 13 14 15 16 17 18 19 20 21 22 23 24 25 26
000
ASUS41 KALY 241710
RWRALY

NEW YORK STATE HOURLY WEATHER ROUNDUP
NATIONAL WEATHER SERVICE ALBANY NY
100 PM EDT MON JUL 24 2017

NOTE: "FAIR" INDICATES FEW OR NO CLOUDS BELOW 12,000 FEET WITH NO
SIGNIFICANT WEATHER AND/OR NO OBSTRUCTIONS TO VISIBILITY.

NYZ032-033-038>043-046>054-057>066-NYZ062>081-082-084-241800-
EAST


CITY           SKY/WX    TMP DP  RH WIND       PRES   REMARKS
ALBANY         DRIZZLE   61  57  87 N6        29.91S FOG
GLENS FALLS    LGT RAIN  59  56  89 NE7       29.93R
POUGHKEEPSIE   CLOUDY    64  58  80 N7        29.86R
NEWBURGH       CLOUDY    66  61  82 NE12G23   29.87
MONTGOMERY     CLOUDY    67  60  78 NE12      29.86R
WHITE PLAINS   PTSUNNY   62  58  86 N10       29.82R FOG
ISLIP          LGT RAIN  64  63  96 N20       29.77R FOG
NEW YORK CITY  LGT RAIN  64  61  90 N13       29.82R
CENTRAL PARK   CLOUDY    63  61  93 NE9       29.86R
$$

NYZ005>009-017-018-044>046-055-056-241800-
CENTRAL


CITY           SKY/WX    TMP DP  RH WIND       PRES   REMARKS
FULTON         CLOUDY    69  65  86 SE8       29.77S
SYRACUSE       CLOUDY    67  66  97 NE12      29.77S
ROME           LGT RAIN  62  60  93 E10       29.84S
ELMIRA         FAIR      79  68  69 S7        29.75F
BINGHAMTON     CLOUDY    69  64  84 SE7       29.82F
$$

NYZ026>034-041>043-087-241800-
NORTH


CITY           SKY/WX    TMP DP  RH WIND       PRES   REMARKS
WATERTOWN      PTSUNNY   71  65  81 S13G18    29.73S
FORT DRUM      NOT AVBL
OGDENSBURG     DRIZZLE   61  60  96 E5        29.80F
MASSENA        RAIN      62  62 100 E10       29.84F FOG
SARANAC LAKE   RAIN      57  56  96 SE6       29.90R FOG
PLATTSBURGH    LGT RAIN  60  56  86 S7        29.94S
$$

NYZ001>004-010>016-019>021-085-241800-
WEST


CITY           SKY/WX    TMP DP  RH WIND       PRES   REMARKS
NIAGARA FALLS  CLOUDY    73  61  65 NW8       29.78R
BUFFALO        PTSUNNY   74  62  66 SW18G25   29.78R
DUNKIRK        CLOUDY    71  62  73 W13G23    29.82S
JAMESTOWN      PTSUNNY   68  57  68 W9        29.86R
WELLSVILLE     FAIR      76  63  64 W10G20    29.84F
ROCHESTER      PTSUNNY   74  65  73 NW8       29.77F
PENN YAN       FAIR      76  65  68 VRB6      29.78F
$$

             KEY
       WCI = WIND CHILL INDEX
       VSB = VISIBILITY
       HX  = HEAT INDEX
$$




USA.gov is the U.S. government's official web portal to all federal, state and local government web resources and services.